Regional Weather Roundup
Issued by NWS Lake Charles, LA

Home | Current Version | Previous Version | Text Only | Print | Product List | Glossary On
Versions: 1 2 3 4 5 6 7 8 9 10 11 12 13 14 15 16 17 18 19 20 21 22 23 24 25 26 27 28 29 30 31 32 33 34 35 36 37 38 39 40 41 42 43 44 45 46 47 48 49
000
ASUS44 KLCH 300110
RWRLCH
RWRLCH
REGIONAL WEATHER ROUNDUP
NATIONAL WEATHER SERVICE LAKE CHARLES LA
800 PM CDT SAT AUG 29 2015

Note: "fair" indicates few or no clouds below 12,000 feet with no
significant weather and/or obstructions to visibility.


ACROSS SOUTHEAST TEXAS

CITY           SKY/WX    TMP DP  RH WIND       PRES   REMARKS
BEAUMONT       CLEAR     76  67  73 S6        29.97F
BEAUMONT CITY    N/A     78  67  70 S3        29.98S
ORANGE         CLEAR     78  64  61 CALM      29.99S
JASPER         CLEAR     81  68  63 CALM      30.00S
$$

ACROSS CENTRAL LOUISIANA

CITY           SKY/WX    TMP DP  RH WIND       PRES   REMARKS
LEESVILLE      CLEAR     83  64  53 S5        29.96S
FULLERTON        N/A     79  65  62 CALM      29.95S
ALEXANDRIA INT PTCLDY    85  62  46 S3        29.95R
ESLER FIELD    PTCLDY    81  67  62 CALM      29.97R
DERIDDER         N/A     85  61  45 CALM      29.99S
OAKDALE          N/A     75  71  87 CALM      29.97S
OPELOUSAS        N/A     82  66  59 SE3       29.97S
$$

ACROSS SOUTHWEST AND SOUTH CENTRAL LOUISIANA

CITY           SKY/WX    TMP DP  RH WIND       PRES   REMARKS
SULPHUR        CLEAR     80  66  63 S3        29.98F
LAKE CHARLES   CLEAR     78  67  68 CALM      29.97F
CHENNAULT INT  NOT AVBL
CAMERON PHI    CLEAR     82  66  57 SW6       30.01S
DEQUINCY         N/A     80  66  63 CALM      29.98S
JENNINGS         N/A     82  66  58 SW3       29.97S
LAFAYETTE      PTCLDY    83  69  62 CALM      29.98R
NEW IBERIA     PTCLDY    81  68  64 S3        29.99R
ABBEVILLE        N/A     78  70  77 S3        29.98S
PATTERSON      CLEAR     77  68  73 S5        30.00R
SALT POINT       N/A     82  69  64 CALM      29.97S
$$

SELECTED SITES ACROSS THE REGION

CITY           SKY/WX    TMP DP  RH WIND       PRES   REMARKS
HOUSTON BUSH   PTCLDY    81  64  56 S7        29.97S
HOUSTON HOBBY  MOCLDY    80  63  55 S5        29.97S
GALVESTON      CLEAR     82  63  52 S5        29.99S
COLLEGE STAT   CLEAR     84  65  52 S7        29.96F
CONROE         CLEAR     81  64  56 SE6       29.98S
HUNTSVILLE     PTCLDY    87  63  44 S5        29.97S
LUFKIN         MOCLDY    84  62  47 S8        29.96S
SHREVEPORT     MOCLDY    86  63  45 SW3       29.95S
MONROE         MOCLDY    85  65  51 CALM      29.96F
NATCHEZ MS     MOCLDY    81  64  57 S3        29.99R
BATON ROUGE    CLEAR     80  68  66 E3        29.98R
N.O. INTL ARPT MOCLDY    84  67  56 SE8       29.99S
SLIDELL        MOCLDY    81  70  69 CALM      29.99S
$$

MARINE REPORTS

STATION/POSITION TIME  TEMP    WIND        PRES    VSBY  WAVE
                       AIR SEA DIR/SP/G                  HT/PER
                 (UTC) (F)     (DEG/KT/KT) (MB)    (MI)  (FT/S)
BUOY 30 S HIGH I 0050   84 87  110/  6/  8 1015.0S         1
SEA RIM ST PARK  0100   82     170/  6/  7 1015.9F
PORT ARTHUR      NOT AVBL
SABINE PASS N    NOT AVBL
TEXAS POINT      NOT AVBL
CALCASIEU PASS   NOT AVBL
LK CHARLES BEACH NOT AVBL
MARSH ISLAND     0000   84     180/  6/  9   N/A           0
FRESH WATER LOCK NOT AVBL
AMERADA PASS     NOT AVBL
$$


USA.gov is the U.S. government's official web portal to all federal, state and local government web resources and services.